Regional Weather Roundup
Issued by NWS

Home | Current Version | Previous Version | Text Only | Print | Product List | Glossary Off
Versions: 1 2 3 4 5 6 7 8 9 10 11 12 13 14 15 16 17 18 19 20 21 22 23 24 25 26 27 28 29 30 31 32 33 34 35 36 37 38 39 40 41 42 43 44 45 46 47 48 49 50

000
ASUS44 KMEG 230010
RWRTN
TENNESSEE HOURLY STATE WEATHER ROUNDUP
NATIONAL WEATHER SERVICE MEMPHIS TN
600 PM CST SAT NOV 22 2014

TNZ002-004-019-021-049-052-054-088>092-230100-
WEST TENNESSEE

CITY           SKY/WX    TMP DP  RH WIND       PRES   REMARKS
MEMPHIS INTL   MOCLDY    57  41  55 E5        30.04F
NWS MEMPHIS      N/A     56 N/A N/A MISG        N/A
JACKSON        MOCLDY    58  37  45 CALM      30.07S
DYERSBURG      CLOUDY    61  34  36 SE6       30.07R
UNION CITY     CLOUDY    57  37  47 S9        30.05S
PARIS          CLEAR     52  36  54 S5        30.08S
HUNTINGDON     PTCLDY    53  33  46 SE5       30.07F
LEXINGTON      CLEAR     59  34  38 SE3       30.07F
SAVANNAH       CLEAR     54  39  58 CALM      30.09S
$$

TNZ008-025-027-028-033-062-065-066-230100-
NORTH MIDDLE TENNESSEE

CITY           SKY/WX    TMP DP  RH WIND       PRES   REMARKS
NASHVILLE      CLOUDY    60  40  47 S9        30.12F
CLARKSVILLE    PTCLDY    59  33  37 S6        30.09F
SMYRNA         MOCLDY    59  42  53 S6        30.14F
COOKEVILLE     CLEAR     54  36  50 S6        30.16F
CROSSVILLE     PTCLDY    53  32  44 S9G17     30.18F
$$

TNZ061-075-076-078-094-096-097-230100-
SOUTH MIDDLE TENNESSEE

CITY           SKY/WX    TMP DP  RH WIND       PRES   REMARKS
FAYETTEVILLE   CLEAR     52  37  58 N22G46    30.16S
TULLAHOMA      CLEAR     55  36  47 S10       30.16F
WINCHESTER     CLEAR     55  36  47 SE9       30.18S
MCMINNVILLE    CLEAR     55  37  50 CALM      30.16F
COLUMBIA       CLEAR     59  43  55 SE5       30.10F
SHELBYVILLE    CLEAR     57  43  58 SE8       30.15F
$$

TNZ017-018-042-046-047-230100-
NORTHEAST TENNESSEE

CITY           SKY/WX    TMP DP  RH WIND       PRES   REMARKS
TRI CITIES     CLEAR     42  25  50 CALM      30.25R
ELIZABETHTON   CLEAR     37  25  60 CALM      30.26R
$$

TNZ012-013-036-069-073-074-230100-
CENTRAL EAST TENNESSEE

CITY           SKY/WX    TMP DP  RH WIND       PRES   REMARKS
KNOXVILLE      CLEAR     51  28  41 E3        30.21F
OAK RIDGE      CLEAR     48  33  56 CALM      30.23S
GATLINBURG     CLEAR     43  28  56 CALM      30.23S
MORRISTOWN     CLEAR     46  28  49 CALM      30.24S
$$

TNZ083-085-099-230100-
SOUTHEAST TENNESSEE

CITY           SKY/WX    TMP DP  RH WIND       PRES   REMARKS
CHATTANOOGA    MOCLDY    56  29  35 S3        30.23F
$$

SKY/WX REPORTED AS FAIR MEANS FEW OR NO CLOUDS BELOW
12 THOUSAND FEET.



USA.gov is the U.S. government's official web portal to all federal, state and local government web resources and services.